,,Stat5,,Stat1,,Stat2,,Stat3,,Stat4,,Wind1,,Wind1,
time,status,PA1M_AVG,status,PR1M_SUM,status,RH1M_AVG,status,SR1M_AVG,status,TA1M_AVG,status,W1dAve1m,status,W1sAve1m,
2002-07-10, 00:00:00,VALID,917.514,VALID,0,VALID,96.0341,VALID,-0.0849042,VALID,20.8513,VALID,81,VALID,0,
2002-07-10, 00:01:00,VALID,917.524,VALID,0,VALID,95.8828,VALID,-0.0679233,VALID,20.8282,VALID,81,VALID,0.188151,
2002-07-10, 00:02:00,VALID,917.532,VALID,0,VALID,95.6158,VALID,-0.0339617,VALID,20.7829,VALID,81,VALID,0.307091,
2002-07-10, 00:03:00,VALID,917.535,VALID,0,VALID,95.556,VALID,-0.0169808,VALID,20.7444,VALID,81,VALID,0.355134,
2002-07-10, 00:04:00,VALID,917.528,VALID,0,VALID,95.7976,VALID,0.0339617,VALID,20.727,VALID,84,VALID,0.392578,
2002-07-10, 00:05:00,VALID,917.512,VALID,0,VALID,95.9769,VALID,-0.0679233,VALID,20.7315,VALID,106,VALID,0.48609,
2002-07-10, 00:06:00,VALID,917.51,VALID,0,VALID,96.3813,VALID,-0.0509425,VALID,20.7705,VALID,121,VALID,0.589453,
2002-07-10, 00:07:00,VALID,917.497,VALID,0,VALID,96.689,VALID,-0.0679233,VALID,20.819,VALID,124,VALID,0.593359,
2002-07-10, 00:08:00,VALID,917.51,VALID,0,VALID,96.9942,VALID,-0.0849042,VALID,20.871,VALID,120,VALID,0.723684,
2002-07-10, 00:09:00,VALID,917.506,VALID,0,VALID,97.1824,VALID,-0.0849042,VALID,20.9167,VALID,119,VALID,0.651316,
2002-07-10, 00:10:00,VALID,917.516,VALID,0,VALID,97.2256,VALID,-0.0679233,VALID,20.942,VALID,110,VALID,0.575041,
2002-07-10, 00:11:00,VALID,917.502,VALID,0,VALID,97.2358,VALID,-0.0509425,VALID,20.9324,VALID,106,VALID,0.579127,
2002-07-10, 00:12:00,VALID,917.48,VALID,0,VALID,97.354,VALID,-0.101885,VALID,20.9162,VALID,108,VALID,0.830798,
2002-07-10, 00:13:00,VALID,917.449,VALID,0,VALID,97.5893,VALID,-0.101885,VALID,20.9324,VALID,113,VALID,0.742804,
2002-07-10, 00:14:00,VALID,917.415,VALID,0,VALID,97.7063,VALID,-0.101885,VALID,20.9453,VALID,110,VALID,0.799862,
2002-07-10, 00:15:00,VALID,917.376,VALID,0,VALID,97.5257,VALID,-0.101885,VALID,20.9649,VALID,113,VALID,0.517525,
2002-07-10, 00:16:00,VALID,917.335,VALID,0,VALID,97.1341,VALID,-0.0849042,VALID,20.9033,VALID,143,VALID,0.814568,
2002-07-10, 00:17:00,VALID,917.312,VALID,0,VALID,97.3693,VALID,-0.101885,VALID,20.8976,VALID,139,VALID,0.852618,
2002-07-10, 00:18:00,VALID,917.274,VALID,0,VALID,97.0959,VALID,-0.101885,VALID,20.865,VALID,138,VALID,0.89383,
2002-07-10, 00:19:00,VALID,917.248,VALID,0,VALID,97.2065,VALID,-0.101885,VALID,20.8392,VALID,133,VALID,1.09665,
2002-07-10, 00:20:00,VALID,917.215,VALID,0,VALID,97.2828,VALID,-0.0509425,VALID,20.8424,VALID,127,VALID,0.813322,
2002-07-10, 00:21:00,VALID,917.201,VALID,0,VALID,97.457,VALID,-0.101885,VALID,20.8362,VALID,112,VALID,1.36451,
2002-07-10, 00:22:00,VALID,917.189,VALID,0,VALID,97.808,VALID,-0.0849042,VALID,20.8936,VALID,99,VALID,1.3043,
2002-07-10, 00:23:00,VALID,917.163,VALID,0,VALID,97.6707,VALID,-0.101885,VALID,20.9135,VALID,95,VALID,1.23902,
2002-07-10, 00:24:00,VALID,917.146,VALID,0,VALID,97.6847,VALID,-0.101885,VALID,20.9172,VALID,112,VALID,1.33553,
2002-07-10, 00:25:00,VALID,917.128,VALID,0,VALID,97.6198,VALID,-0.101885,VALID,20.913,VALID,127,VALID,0.936266,
2002-07-10, 00:26:00,VALID,917.125,VALID,0,VALID,97.5499,VALID,-0.0849042,VALID,20.9167,VALID,118,VALID,1.13158,
2002-07-10, 00:27:00,VALID,917.136,VALID,0,VALID,97.3896,VALID,-0.0679233,VALID,20.9041,VALID,108,VALID,0.694257,
2002-07-10, 00:28:00,VALID,917.143,VALID,0,VALID,97.3464,VALID,-0.0849042,VALID,20.8782,VALID,110,VALID,0.572368,
2002-07-10, 00:29:00,VALID,917.152,VALID,0,VALID,97.3808,VALID,-0.0509425,VALID,20.8421,VALID,107,VALID,0.622738,
2002-07-10, 00:30:00,VALID,917.154,VALID,0,VALID,97.3769,VALID,-0.0849042,VALID,20.8228,VALID,92,VALID,0.721834,
2002-07-10, 00:31:00,VALID,917.141,VALID,0,VALID,97.3922,VALID,-0.0509425,VALID,20.8069,VALID,115,VALID,0.438734,
2002-07-10, 00:32:00,VALID,917.151,VALID,0,VALID,97.5105,VALID,-0.0849042,VALID,20.7972,VALID,116,VALID,0.459375,
2002-07-10, 00:33:00,VALID,917.159,VALID,0,VALID,97.6961,VALID,-0.0679233,VALID,20.8166,VALID,153,VALID,0.618627,
2002-07-10, 00:34:00,VALID,917.178,VALID,0,VALID,97.8309,VALID,0,VALID,20.8247,VALID,146,VALID,0.238839,
2002-07-10, 00:35:00,VALID,917.187,VALID,0,VALID,97.8258,VALID,0.0169808,VALID,20.8212,VALID,145,VALID,0.209248,
2002-07-10, 00:36:00,VALID,917.183,VALID,0,VALID,97.8436,VALID,0.0169808,VALID,20.8217,VALID,137,VALID,0.474159,
2002-07-10, 00:37:00,VALID,917.184,VALID,0,VALID,97.8818,VALID,0,VALID,20.8249,VALID,130,VALID,0.51647,
2002-07-10, 00:38:00,VALID,917.165,VALID,0,VALID,97.8449,VALID,0.0169808,VALID,20.8158,VALID,130,VALID,0.541211,
2002-07-10, 00:39:00,VALID,917.157,VALID,0,VALID,97.8245,VALID,0,VALID,20.7929,VALID,140,VALID,0.691907,
2002-07-10, 00:40:00,VALID,917.151,VALID,0,VALID,97.9301,VALID,0,VALID,20.7802,VALID,142,VALID,0.865785,
2002-07-10, 00:41:00,VALID,917.15,VALID,0,VALID,98.0636,VALID,0,VALID,20.7797,VALID,139,VALID,0.624383,
2002-07-10, 00:42:00,VALID,917.141,VALID,0,VALID,98.0496,VALID,0.0169808,VALID,20.7765,VALID,124,VALID,0.591146,
2002-07-10, 00:43:00,VALID,917.12,VALID,0,VALID,98.1068,VALID,0.0339617,VALID,20.7539,VALID,117,VALID,0.763421,
2002-07-10, 00:44:00,VALID,917.095,VALID,0,VALID,98.1997,VALID,0,VALID,20.7339,VALID,103,VALID,0.856908,
2002-07-10, 00:45:00,VALID,917.076,VALID,0,VALID,98.2315,VALID,0,VALID,20.7342,VALID,92,VALID,0.725718,
2002-07-10, 00:46:00,VALID,917.067,VALID,0,VALID,98.1577,VALID,0.0169808,VALID,20.696,VALID,88,VALID,0.688477,
2002-07-10, 00:47:00,VALID,917.074,VALID,0,VALID,98.2442,VALID,0,VALID,20.6733,VALID,81,VALID,0.710556,
2002-07-10, 00:48:00,VALID,917.055,VALID,0,VALID,98.2493,VALID,0.0169808,VALID,20.6378,VALID,91,VALID,0.615709,
2002-07-10, 00:49:00,VALID,917.034,VALID,0,VALID,98.426,VALID,0.0169808,VALID,20.6443,VALID,96,VALID,0.72614,
2002-07-10, 00:50:00,VALID,916.998,VALID,0,VALID,98.5303,VALID,0,VALID,20.6704,VALID,104,VALID,0.889706,
2002-07-10, 00:51:00,VALID,916.98,VALID,0,VALID,98.529,VALID,0,VALID,20.6696,VALID,116,VALID,0.829327,
2002-07-10, 00:52:00,VALID,916.954,VALID,0,VALID,98.5341,VALID,0.0339617,VALID,20.6666,VALID,112,VALID,0.865349,
2002-07-10, 00:53:00,VALID,916.963,VALID,0,VALID,98.5799,VALID,0.0169808,VALID,20.6671,VALID,122,VALID,0.735853,
2002-07-10, 00:54:00,VALID,916.979,VALID,0,VALID,98.5201,VALID,0,VALID,20.6674,VALID,114,VALID,0.473558,
2002-07-10, 00:55:00,VALID,917.012,VALID,0,VALID,98.4464,VALID,0,VALID,20.6351,VALID,135,VALID,0.44184,
2002-07-10, 00:56:00,VALID,917.025,VALID,0,VALID,98.4235,VALID,0,VALID,20.5958,VALID,145,VALID,0.446484,
2002-07-10, 00:57:00,VALID,917.044,VALID,0,VALID,98.4514,VALID,0.0339617,VALID,20.5831,VALID,142,VALID,0.297903,
2002-07-10, 00:58:00,VALID,917.04,VALID,0,VALID,98.4756,VALID,0.0339617,VALID,20.5799,VALID,123,VALID,0.381785,
2002-07-10, 00:59:00,VALID,917.034,VALID,0,VALID,98.2238,VALID,0.0169808,VALID,20.5212,VALID,114,VALID,0.406822,
2002-07-10, 01:00:00,VALID,917.015,VALID,0,VALID,98.0852,VALID,0,VALID,20.431,VALID,88,VALID,0.508984,
2002-07-10, 01:01:00,VALID,917.018,VALID,0,VALID,98.0229,VALID,0.0679233,VALID,20.3699,VALID,80,VALID,0.553516,
2002-07-10, 01:02:00,VALID,917.011,VALID,0,VALID,98.1043,VALID,0.0169808,VALID,20.3597,VALID,79,VALID,0.512541,
2002-07-10, 01:03:00,VALID,916.997,VALID,0,VALID,98.0293,VALID,0,VALID,20.3538,VALID,79,VALID,0.450658,
2002-07-10, 01:04:00,VALID,916.974,VALID,0,VALID,97.925,VALID,0.0169808,VALID,20.3282,VALID,79,VALID,0.351974,
2002-07-10, 01:05:00,VALID,916.963,VALID,0,VALID,97.6541,VALID,0.0339617,VALID,20.2668,VALID,79,VALID,0.292869,
2002-07-10, 01:06:00,VALID,916.935,VALID,0,VALID,96.9192,VALID,0.0339617,VALID,20.0883,VALID,38,VALID,0.652344,
2002-07-10, 01:07:00,VALID,916.924,VALID,0,VALID,96.8874,VALID,0.0339617,VALID,20.0208,VALID,31,VALID,0.757401,
2002-07-10, 01:08:00,VALID,916.892,VALID,0,VALID,97.5015,VALID,0,VALID,20.063,VALID,45,VALID,0.517693,
2002-07-10, 01:09:00,VALID,916.863,VALID,0,VALID,97.9822,VALID,0,VALID,20.1666,VALID,81,VALID,0.49641,
2002-07-10, 01:10:00,VALID,916.844,VALID,0,VALID,97.9949,VALID,0.0339617,VALID,20.2059,VALID,106,VALID,0.661994,
2002-07-10, 01:11:00,VALID,916.83,VALID,0,VALID,97.9097,VALID,0.0169808,VALID,20.2116,VALID,136,VALID,0.533784,
2002-07-10, 01:12:00,VALID,916.803,VALID,0,VALID,97.8538,VALID,0.0169808,VALID,20.2059,VALID,139,VALID,0.580128,
2002-07-10, 01:13:00,VALID,916.795,VALID,0,VALID,97.8843,VALID,0.0679233,VALID,20.1858,VALID,123,VALID,0.586384,
2002-07-10, 01:14:00,VALID,916.787,VALID,0,VALID,97.5918,VALID,0,VALID,20.1408,VALID,94,VALID,0.363076,
2002-07-10, 01:15:00,VALID,916.78,VALID,0,VALID,97.2015,VALID,0,VALID,20.0148,VALID,88,VALID,0.325,
2002-07-10, 01:16:00,VALID,916.782,VALID,0,VALID,97.176,VALID,0.0169808,VALID,19.9765,VALID,88,VALID,0.192188,
2002-07-10, 01:17:00,VALID,916.767,VALID,0,VALID,97.2536,VALID,-0.0169808,VALID,19.9405,VALID,88,VALID,0,
2002-07-10, 01:18:00,VALID,916.758,VALID,0,VALID,97.4087,VALID,0,VALID,19.9574,VALID,88,VALID,0,
2002-07-10, 01:19:00,VALID,916.741,VALID,0,VALID,97.485,VALID,0.0509425,VALID,19.9693,VALID,88,VALID,0,
2002-07-10, 01:20:00,VALID,916.711,VALID,0,VALID,97.5995,VALID,0.101885,VALID,20.0051,VALID,88,VALID,0.142475,
2002-07-10, 01:21:00,VALID,916.688,VALID,0,VALID,97.7762,VALID,0.0169808,VALID,20.057,VALID,127,VALID,0.271326,
2002-07-10, 01:22:00,VALID,916.668,VALID,0,VALID,97.9314,VALID,0.0509425,VALID,20.0956,VALID,172,VALID,0.170025,
2002-07-10, 01:23:00,VALID,916.615,VALID,0,VALID,98.0356,VALID,0.0849042,VALID,20.1472,VALID,176,VALID,0.597656,
2002-07-10, 01:24:00,VALID,916.573,VALID,0,VALID,98.0865,VALID,0.101885,VALID,20.1602,VALID,174,VALID,0.770765,
2002-07-10, 01:25:00,VALID,916.53,VALID,0,VALID,98.1806,VALID,0.0679233,VALID,20.196,VALID,170,VALID,0.513569,
2002-07-10, 01:26:00,VALID,916.525,VALID,0,VALID,98.1475,VALID,0.0849042,VALID,20.1887,VALID,156,VALID,0.520759,
2002-07-10, 01:27:00,VALID,916.545,VALID,0,VALID,98.2493,VALID,0.0849042,VALID,20.193,VALID,154,VALID,0.518709,
2002-07-10, 01:28:00,VALID,916.564,VALID,0,VALID,98.3077,VALID,0.0849042,VALID,20.1989,VALID,159,VALID,0.270312,
2002-07-10, 01:29:00,VALID,916.566,VALID,0,VALID,98.3408,VALID,0.0509425,VALID,20.1957,VALID,169,VALID,0.174409,
2002-07-10, 01:30:00,VALID,916.566,VALID,0,VALID,98.3408,VALID,0.0849042,VALID,20.1895,VALID,187,VALID,0.369391,
2002-07-10, 01:31:00,VALID,916.554,VALID,0,VALID,98.2823,VALID,0.0679233,VALID,20.1639,VALID,209,VALID,0.319257,
2002-07-10, 01:32:00,VALID,916.53,VALID,0,VALID,98.4006,VALID,0.0849042,VALID,20.1438,VALID,197,VALID,0.447461,
2002-07-10, 01:33:00,VALID,916.501,VALID,0,VALID,98.4451,VALID,0.0169808,VALID,20.1644,VALID,196,VALID,0.352564,
2002-07-10, 01:34:00,VALID,916.451,VALID,0,VALID,98.4069,VALID,-0.0169808,VALID,20.1557,VALID,169,VALID,0.435096,
2002-07-10, 01:35:00,VALID,916.418,VALID,0,VALID,98.3294,VALID,-0.0169808,VALID,20.1167,VALID,167,VALID,0.372327,
2002-07-10, 01:36:00,VALID,916.408,VALID,0,VALID,98.3116,VALID,-0.0509425,VALID,20.0548,VALID,156,VALID,0.482171,
2002-07-10, 01:37:00,VALID,916.381,VALID,0,VALID,98.4069,VALID,-0.0169808,VALID,20.0553,VALID,148,VALID,0.29347,
2002-07-10, 01:38:00,VALID,916.381,VALID,0,VALID,98.5125,VALID,-0.101885,VALID,20.0623,VALID,148,VALID,0.402449,
2002-07-10, 01:39:00,VALID,916.383,VALID,0,VALID,98.6091,VALID,-0.0509425,VALID,20.0944,VALID,150,VALID,0.220861,
2002-07-10, 01:40:00,VALID,916.394,VALID,0,VALID,98.6613,VALID,-0.0339617,VALID,20.1299,VALID,152,VALID,0.219531,
2002-07-10, 01:41:00,VALID,916.377,VALID,0,VALID,98.674,VALID,-0.0339617,VALID,20.1523,VALID,170,VALID,0.408156,
2002-07-10, 01:42:00,VALID,916.364,VALID,0,VALID,98.6905,VALID,-0.0849042,VALID,20.1649,VALID,174,VALID,0.463682,
2002-07-10, 01:43:00,VALID,916.337,VALID,0,VALID,98.6816,VALID,-0.0509425,VALID,20.1846,VALID,170,VALID,0.811655,
2002-07-10, 01:44:00,VALID,916.306,VALID,0,VALID,98.6765,VALID,-0.0509425,VALID,20.1878,VALID,168,VALID,0.549862,
2002-07-10, 01:45:00,VALID,916.268,VALID,0,VALID,98.6295,VALID,-0.0679233,VALID,20.1786,VALID,170,VALID,0.56871,
2002-07-10, 01:46:00,VALID,916.241,VALID,0,VALID,98.5951,VALID,-0.0679233,VALID,20.1622,VALID,160,VALID,0.467831,
2002-07-10, 01:47:00,VALID,916.206,VALID,0,VALID,98.5328,VALID,-0.0339617,VALID,20.1234,VALID,156,VALID,0.512035,
2002-07-10, 01:48:00,VALID,916.175,VALID,0,VALID,98.5913,VALID,-0.0509425,VALID,20.1234,VALID,141,VALID,0.8127,
2002-07-10, 01:49:00,VALID,916.129,VALID,0,VALID,98.6333,VALID,0.0169808,VALID,20.1189,VALID,127,VALID,0.999783,
2002-07-10, 01:50:00,VALID,916.085,VALID,0,VALID,98.7375,VALID,0.0339617,VALID,20.1341,VALID,129,VALID,1.28672,
2002-07-10, 01:51:00,VALID,916.042,VALID,0,VALID,98.8037,VALID,0,VALID,20.1962,VALID,129,VALID,0.890831,
2002-07-10, 01:52:00,VALID,916.02,VALID,0,VALID,98.7859,VALID,0.0679233,VALID,20.2253,VALID,114,VALID,0.847656,
2002-07-10, 01:53:00,VALID,916.019,VALID,0,VALID,98.8049,VALID,0.0339617,VALID,20.2479,VALID,110,VALID,0.710556,
2002-07-10, 01:54:00,VALID,916.039,VALID,0,VALID,98.8227,VALID,0.0679233,VALID,20.2802,VALID,119,VALID,0.654297,
2002-07-10, 01:55:00,VALID,916.076,VALID,0,VALID,98.8215,VALID,0.0679233,VALID,20.2964,VALID,122,VALID,0.663281,
2002-07-10, 01:56:00,VALID,916.099,VALID,0,VALID,98.8253,VALID,0,VALID,20.3287,VALID,155,VALID,0.453331,
2002-07-10, 01:57:00,VALID,916.114,VALID,0,VALID,98.8202,VALID,0,VALID,20.3389,VALID,140,VALID,0.534745,
2002-07-10, 01:58:00,VALID,916.117,VALID,0,VALID,98.7871,VALID,0,VALID,20.3448,VALID,145,VALID,0.623561,
2002-07-10, 01:59:00,VALID,916.103,VALID,0,VALID,98.7528,VALID,0.0339617,VALID,20.3513,VALID,138,VALID,0.728566,
2002-07-10, 02:00:00,VALID,916.084,VALID,0,VALID,98.7045,VALID,0.0509425,VALID,20.3282,VALID,129,VALID,0.556538,
2002-07-10, 02:01:00,VALID,916.04,VALID,0,VALID,98.6765,VALID,0.0339617,VALID,20.3055,VALID,116,VALID,0.729646,
2002-07-10, 02:02:00,VALID,916.023,VALID,0,VALID,98.6689,VALID,0.0679233,VALID,20.2961,VALID,134,VALID,0.822151,
2002-07-10, 02:03:00,VALID,915.997,VALID,0,VALID,98.6435,VALID,-0.0339617,VALID,20.2872,VALID,115,VALID,0.713049,
2002-07-10, 02:04:00,VALID,915.968,VALID,0,VALID,98.6295,VALID,-0.0509425,VALID,20.2783,VALID,124,VALID,0.490579,
2002-07-10, 02:05:00,VALID,915.931,VALID,0,VALID,98.6435,VALID,-0.0679233,VALID,20.2618,VALID,134,VALID,1.11698,
2002-07-10, 02:06:00,VALID,915.885,VALID,0,VALID,98.6549,VALID,-0.0339617,VALID,20.2519,VALID,122,VALID,1.00381,
2002-07-10, 02:07:00,VALID,915.851,VALID,0,VALID,98.7019,VALID,-0.0679233,VALID,20.2589,VALID,127,VALID,0.836384,
2002-07-10, 02:08:00,VALID,915.821,VALID,0,VALID,98.7439,VALID,-0.0509425,VALID,20.2748,VALID,141,VALID,0.999589,
2002-07-10, 02:09:00,VALID,915.814,VALID,0,VALID,98.7363,VALID,0,VALID,20.2753,VALID,117,VALID,0.809152,
2002-07-10, 02:10:00,VALID,915.783,VALID,0,VALID,98.7617,VALID,-0.0679233,VALID,20.2651,VALID,130,VALID,1.07891,
2002-07-10, 02:11:00,VALID,915.789,VALID,0,VALID,98.7617,VALID,-0.0509425,VALID,20.2589,VALID,133,VALID,0.809333,
2002-07-10, 02:12:00,VALID,915.787,VALID,0,VALID,98.7554,VALID,-0.0679233,VALID,20.2457,VALID,121,VALID,0.986225,
2002-07-10, 02:13:00,VALID,915.784,VALID,0,VALID,98.7515,VALID,-0.0339617,VALID,20.2333,VALID,98,VALID,0.745888,
2002-07-10, 02:14:00,VALID,915.772,VALID,0,VALID,98.7236,VALID,-0.101885,VALID,20.201,VALID,105,VALID,1.17455,
2002-07-10, 02:15:00,VALID,915.756,VALID,0,VALID,98.796,VALID,-0.0679233,VALID,20.195,VALID,115,VALID,1.46495,
2002-07-10, 02:16:00,VALID,915.708,VALID,0,VALID,98.8062,VALID,-0.0679233,VALID,20.1818,VALID,117,VALID,1.77817,
2002-07-10, 02:17:00,VALID,915.692,VALID,0,VALID,98.8189,VALID,-0.0509425,VALID,20.1654,VALID,119,VALID,1.3859,
2002-07-10, 02:18:00,VALID,915.683,VALID,0,VALID,98.8545,VALID,-0.0849042,VALID,20.1622,VALID,128,VALID,0.950041,
2002-07-10, 02:19:00,VALID,915.693,VALID,0,VALID,98.8838,VALID,-0.0509425,VALID,20.1493,VALID,125,VALID,1.10835,
2002-07-10, 02:20:00,VALID,915.692,VALID,0,VALID,98.9067,VALID,-0.0849042,VALID,20.1458,VALID,118,VALID,1.19018,
2002-07-10, 02:21:00,VALID,915.684,VALID,0,VALID,98.9308,VALID,-0.0849042,VALID,20.1426,VALID,117,VALID,1.18935,
2002-07-10, 02:22:00,VALID,915.659,VALID,0,VALID,98.955,VALID,-0.0509425,VALID,20.1393,VALID,112,VALID,1.30067,
2002-07-10, 02:23:00,VALID,915.629,VALID,0,VALID,98.9626,VALID,-0.0679233,VALID,20.1428,VALID,124,VALID,1.03104,
2002-07-10, 02:24:00,VALID,915.612,VALID,0,VALID,98.9893,VALID,-0.0849042,VALID,20.1391,VALID,120,VALID,1.16647,
2002-07-10, 02:25:00,VALID,915.591,VALID,0,VALID,98.9931,VALID,-0.0679233,VALID,20.1396,VALID,130,VALID,1.03041,
2002-07-10, 02:26:00,VALID,915.587,VALID,0,VALID,98.997,VALID,-0.101885,VALID,20.1296,VALID,137,VALID,0.907812,
2002-07-10, 02:27:00,VALID,915.57,VALID,0,VALID,99.03,VALID,-0.101885,VALID,20.1463,VALID,146,VALID,1.15645,
2002-07-10, 02:28:00,VALID,915.535,VALID,0,VALID,99.0427,VALID,-0.0509425,VALID,20.1555,VALID,147,VALID,1.57011,
2002-07-10, 02:29:00,VALID,915.525,VALID,0,VALID,99.044,VALID,-0.101885,VALID,20.1587,VALID,143,VALID,1.03516,
2002-07-10, 02:30:00,VALID,915.503,VALID,0,VALID,99.0415,VALID,-0.0849042,VALID,20.1659,VALID,143,VALID,1.45413,
2002-07-10, 02:31:00,VALID,915.494,VALID,0,VALID,99.0275,VALID,-0.0849042,VALID,20.1331,VALID,143,VALID,1.55589,
2002-07-10, 02:32:00,VALID,915.483,VALID,0,VALID,99.0351,VALID,-0.0849042,VALID,20.1299,VALID,139,VALID,1.72804,
2002-07-10, 02:33:00,VALID,915.471,VALID,0,VALID,99.0491,VALID,-0.0849042,VALID,20.117,VALID,136,VALID,1.11022,
2002-07-10, 02:34:00,VALID,915.464,VALID,0,VALID,99.0313,VALID,-0.0849042,VALID,20.114,VALID,125,VALID,1.13281,
2002-07-10, 02:35:00,VALID,915.473,VALID,0,VALID,99.0287,VALID,-0.0849042,VALID,20.0809,VALID,131,VALID,0.752096,
2002-07-10, 02:36:00,VALID,915.467,VALID,0,VALID,99.0466,VALID,-0.0679233,VALID,20.0785,VALID,131,VALID,0.510557,
2002-07-10, 02:37:00,VALID,915.478,VALID,0,VALID,99.0148,VALID,-0.101885,VALID,20.0496,VALID,113,VALID,0.687922,
2002-07-10, 02:38:00,VALID,915.488,VALID,0,VALID,99.0186,VALID,-0.0679233,VALID,20.0302,VALID,103,VALID,1.03125,
2002-07-10, 02:39:00,VALID,915.499,VALID,0,VALID,99.0237,VALID,-0.0849042,VALID,19.9939,VALID,110,VALID,0.872196,
2002-07-10, 02:40:00,VALID,915.505,VALID,0,VALID,99.0211,VALID,-0.118866,VALID,19.985,VALID,107,VALID,0.892463,
2002-07-10, 02:41:00,VALID,915.504,VALID,0,VALID,99.0237,VALID,-0.0849042,VALID,19.9557,VALID,104,VALID,0.899282,
2002-07-10, 02:42:00,VALID,915.52,VALID,0,VALID,99.0275,VALID,-0.101885,VALID,19.9594,VALID,136,VALID,0.704327,
2002-07-10, 02:43:00,VALID,915.522,VALID,0,VALID,99.0338,VALID,-0.0849042,VALID,19.9423,VALID,133,VALID,0.638889,
2002-07-10, 02:44:00,VALID,915.516,VALID,0,VALID,99.0262,VALID,-0.0679233,VALID,19.9428,VALID,131,VALID,0.8,
2002-07-10, 02:45:00,VALID,915.501,VALID,0,VALID,99.0313,VALID,-0.0849042,VALID,19.9328,VALID,143,VALID,0.539885,
2002-07-10, 02:46:00,VALID,915.488,VALID,0,VALID,99.0377,VALID,-0.0849042,VALID,19.9326,VALID,151,VALID,0.948191,
2002-07-10, 02:47:00,VALID,915.454,VALID,0,VALID,99.0198,VALID,-0.0849042,VALID,19.9363,VALID,150,VALID,0.948933,
2002-07-10, 02:48:00,VALID,915.461,VALID,0,VALID,99.0109,VALID,-0.0339617,VALID,19.9291,VALID,161,VALID,0.975391,
2002-07-10, 02:49:00,VALID,915.458,VALID,0,VALID,99.0516,VALID,0,VALID,19.9447,VALID,163,VALID,0.949609,
2002-07-10, 02:50:00,VALID,915.455,VALID,0,VALID,99.0478,VALID,0.0339617,VALID,19.9706,VALID,144,VALID,0.892887,
2002-07-10, 02:51:00,VALID,915.468,VALID,0,VALID,99.0529,VALID,0.0339617,VALID,19.9663,VALID,169,VALID,0.652138,
2002-07-10, 02:52:00,VALID,915.461,VALID,0,VALID,99.0555,VALID,0.0849042,VALID,19.9763,VALID,146,VALID,1.53351,
2002-07-10, 02:53:00,VALID,915.456,VALID,0,VALID,99.0466,VALID,0.0169808,VALID,19.9924,VALID,146,VALID,1.03025,
2002-07-10, 02:54:00,VALID,915.437,VALID,0,VALID,98.9881,VALID,0.0339617,VALID,19.9698,VALID,101,VALID,0.559827,
2002-07-10, 02:55:00,VALID,915.405,VALID,0,VALID,98.941,VALID,0,VALID,19.941,VALID,120,VALID,0.717722,
2002-07-10, 02:56:00,VALID,915.387,VALID,0,VALID,98.913,VALID,0.0339617,VALID,19.9413,VALID,103,VALID,0.768842,
2002-07-10, 02:57:00,VALID,915.384,VALID,0,VALID,98.8787,VALID,0.0339617,VALID,19.938,VALID,92,VALID,0.301309,
2002-07-10, 02:58:00,VALID,915.394,VALID,0,VALID,98.8482,VALID,0.0339617,VALID,19.941,VALID,117,VALID,1.02551,
2002-07-10, 02:59:00,VALID,915.403,VALID,0,VALID,98.7897,VALID,0.0169808,VALID,19.9472,VALID,130,VALID,0.889147,
2002-07-10, 03:00:00,VALID,915.415,VALID,0,VALID,98.7503,VALID,0.0169808,VALID,19.947,VALID,158,VALID,0.597556,
2002-07-10, 03:01:00,VALID,915.403,VALID,0,VALID,98.6905,VALID,0,VALID,19.9733,VALID,136,VALID,0.89933,
2002-07-10, 03:02:00,VALID,915.384,VALID,0,VALID,98.6269,VALID,0,VALID,19.9736,VALID,141,VALID,0.41139,
2002-07-10, 03:03:00,VALID,915.385,VALID,0,VALID,98.5455,VALID,0.0169808,VALID,19.9932,VALID,124,VALID,0.956027,
2002-07-10, 03:04:00,VALID,915.398,VALID,0,VALID,98.4591,VALID,0,VALID,20.0091,VALID,161,VALID,1.06797,
2002-07-10, 03:05:00,VALID,915.405,VALID,0,VALID,98.412,VALID,0.0169808,VALID,20.0384,VALID,134,VALID,0.679054,
2002-07-10, 03:06:00,VALID,915.441,VALID,0,VALID,98.3726,VALID,0.0169808,VALID,20.0573,VALID,153,VALID,0.931127,
2002-07-10, 03:07:00,VALID,915.468,VALID,0,VALID,98.1501,VALID,0,VALID,20.0675,VALID,120,VALID,0.703742,
2002-07-10, 03:08:00,VALID,915.484,VALID,0,VALID,98.0242,VALID,0.0339617,VALID,20.061,VALID,133,VALID,0.878701,
2002-07-10, 03:09:00,VALID,915.505,VALID,0,VALID,97.9466,VALID,0,VALID,20.0576,VALID,149,VALID,1.03083,
2002-07-10, 03:10:00,VALID,915.516,VALID,0,VALID,97.8678,VALID,0,VALID,20.074,VALID,173,VALID,0.708059,
2002-07-10, 03:11:00,VALID,915.526,VALID,0,VALID,97.7927,VALID,0,VALID,20.0672,VALID,182,VALID,0.635485,
2002-07-10, 03:12:00,VALID,915.522,VALID,0,VALID,97.6872,VALID,0.0169808,VALID,20.068,VALID,182,VALID,0.764186,
2002-07-10, 03:13:00,VALID,915.494,VALID,0,VALID,97.6096,VALID,-0.0169808,VALID,20.0479,VALID,173,VALID,0.746094,
2002-07-10, 03:14:00,VALID,915.47,VALID,0,VALID,97.5333,VALID,0,VALID,20.0347,VALID,167,VALID,0.67567,
2002-07-10, 03:15:00,VALID,915.414,VALID,0,VALID,97.4367,VALID,0.0169808,VALID,20.0287,VALID,160,VALID,0.524671,
2002-07-10, 03:16:00,VALID,915.383,VALID,0,VALID,97.4774,VALID,0.0169808,VALID,20.0123,VALID,163,VALID,1.10513,
2002-07-10, 03:17:00,VALID,915.351,VALID,0,VALID,97.4787,VALID,0,VALID,19.9897,VALID,148,VALID,1.37247,
2002-07-10, 03:18:00,VALID,915.332,VALID,0,VALID,97.5105,VALID,0,VALID,19.9872,VALID,143,VALID,1.30288,
2002-07-10, 03:19:00,VALID,915.311,VALID,0,VALID,97.5753,VALID,-0.0169808,VALID,19.9706,VALID,146,VALID,1.48564,
2002-07-10, 03:20:00,VALID,915.294,VALID,0,VALID,97.5168,VALID,-0.0169808,VALID,19.9673,VALID,143,VALID,1.11855,
2002-07-10, 03:21:00,VALID,915.281,VALID,0,VALID,97.4799,VALID,-0.0169808,VALID,19.9549,VALID,135,VALID,1.04527,
2002-07-10, 03:22:00,VALID,915.269,VALID,0,VALID,97.5028,VALID,-0.0169808,VALID,19.9425,VALID,130,VALID,0.865785,
2002-07-10, 03:23:00,VALID,915.279,VALID,0,VALID,97.5105,VALID,-0.0169808,VALID,19.9224,VALID,143,VALID,0.824836,
2002-07-10, 03:24:00,VALID,915.305,VALID,0,VALID,97.5931,VALID,-0.0169808,VALID,19.9129,VALID,127,VALID,0.849559,
2002-07-10, 03:25:00,VALID,915.334,VALID,0,VALID,97.6325,VALID,-0.0509425,VALID,19.9129,VALID,115,VALID,0.697115,
2002-07-10, 03:26:00,VALID,915.36,VALID,0,VALID,97.7025,VALID,-0.0169808,VALID,19.9065,VALID,104,VALID,0.829603,
2002-07-10, 03:27:00,VALID,915.374,VALID,0,VALID,97.7317,VALID,0,VALID,19.9162,VALID,101,VALID,0.845439,
2002-07-10, 03:28:00,VALID,915.377,VALID,0,VALID,97.7101,VALID,0,VALID,19.8928,VALID,108,VALID,0.860547,
2002-07-10, 03:29:00,VALID,915.366,VALID,0,VALID,97.7203,VALID,-0.0169808,VALID,19.8901,VALID,118,VALID,1.10328,
2002-07-10, 03:30:00,VALID,915.355,VALID,0,VALID,97.6147,VALID,0,VALID,19.8769,VALID,134,VALID,0.889569,
2002-07-10, 03:31:00,VALID,915.33,VALID,0,VALID,97.7699,VALID,-0.0169808,VALID,19.8744,VALID,133,VALID,1.11402,